Flag for China Weather past 2 weeks in Taiyuan, Shanxi, China

Now
88 °F

Clear.


Feels Like: 88 °F
Forecast: 71 / 92 °F
Wind: 3 mph from Southwest

Location: Taiyuan Airport

Current Time: Jul 30, 2015 at 12:18:31 PM

Latest Report: Jul 30, 2015 at 11:30 AM


Visibility: 5 mi

Pressure: 29.71 "Hg (27.19 "Hg at 790m altitude)

Humidity: 43%

Dew point: 63 °F

Location of TaiyuanLocation

Historic Weather in Taiyuan — Graph

°F

Taiyuan temperature yesterday

Maximum temperature yesterday: 91 °F (at 4:30 PM)
Minimum temperature yesterday: 75 °F (at 4:30 AM)
Average temperature yesterday: 81 °F

Past Weeks' High & Low Weather Summary

 TemperatureHumidityPressure
High97 °F (Jul 26, 4:30 PM)94% (Jul 18, 5:00 AM)29.89 "Hg (Jul 18, 5:00 AM)
Low61 °F (Jul 16, 1:00 AM)19% (Jul 23, 6:30 PM)29.65 "Hg (Jul 24, 3:30 PM)
Average76 °F60%29.76 "Hg
* Reported Jul 15 11:00 AM — Jul 30 11:00 AM, Taiyuan, Weather by CustomWeather, © 2015

Note: Actual official high and low records may vary slightly from our data, if they occured in-between our weather recording intervals... More about our weather records

Advertising

Taiyuan weather history for previous 24 hours

 ConditionsComfort  
Time TempWeatherWind HumidityBarometerVisibility
11:00 AM
Thu, Jul 30
88 °FClear.3 mph46%29.74 "Hg5 mi
10:30 AM86 °FClear.3 mph46%29.74 "Hg5 mi
10:00 AM86 °FClear.3 mph49%29.74 "Hg4 mi
9:30 AM82 °FClear.3 mph55%29.74 "Hg4 mi
9:00 AM81 °FClear.1 mph58%29.74 "Hg4 mi
8:30 AM81 °FClear.1 mph58%29.74 "Hg4 mi
8:00 AM79 °FClear.1 mph61%29.74 "Hg4 mi
7:30 AM77 °FClear.1 mph65%29.74 "Hg4 mi
7:00 AM73 °FHaze.1 mph74%29.74 "Hg3 mi
6:30 AM72 °FHaze.1 mph83%29.74 "Hg3 mi
6:00 AM70 °FHaze.1 mph83%29.71 "Hg3 mi
5:30 AM72 °FHaze.1 mph78%29.71 "Hg3 mi
5:00 AM72 °FClear.No wind78%29.71 "Hg4 mi
4:30 AM72 °FClear.1 mph78%29.71 "Hg4 mi
4:00 AM70 °FClear.1 mph78%29.68 "Hg4 mi
3:30 AM72 °FClear.1 mph78%29.68 "Hg4 mi
3:00 AM73 °FClear.1 mph74%29.71 "Hg4 mi
2:30 AM73 °FClear.1 mph74%29.68 "Hg4 mi
2:00 AM75 °FClear.1 mph65%29.71 "Hg5 mi
1:30 AM75 °FClear.1 mph65%29.71 "Hg10 mi
1:00 AM77 °FClear.6 mph61%29.71 "Hg10 mi
12:30 AM75 °FClear.6 mph65%29.68 "Hg10 mi
12:00 AM79 °FPassing clouds.6 mph54%29.68 "HgN/A
11:30 PM
Wed, Jul 29
79 °FPassing clouds.6 mph51%29.68 "HgN/A
11:00 PM79 °FClear.6 mph48%29.68 "Hg10 mi
10:30 PM79 °FPassing clouds.3 mph51%29.68 "HgN/A
10:00 PM77 °FClear.3 mph57%29.71 "Hg10 mi
9:30 PM77 °FClear.1 mph57%29.68 "Hg10 mi
9:00 PM79 °FClear.1 mph54%29.68 "Hg10 mi
8:30 PM77 °FClear.1 mph61%29.68 "Hg10 mi
8:00 PM81 °FClear.1 mph48%29.65 "Hg10 mi
7:30 PM84 °FSunny.1 mph40%29.65 "Hg10 mi
7:00 PM86 °FSunny.1 mph38%29.65 "Hg10 mi
6:30 PM88 °FSunny.3 mph33%29.68 "Hg10 mi
6:00 PM88 °FSunny.3 mph33%29.68 "Hg10 mi
5:30 PM88 °FSunny.1 mph33%29.65 "Hg10 mi
5:00 PM91 °FSunny.1 mph28%29.65 "Hg10 mi
4:30 PM91 °FSunny.1 mph26%29.65 "Hg10 mi
4:00 PM90 °FSunny.3 mph29%29.68 "Hg10 mi
3:30 PM88 °FPassing clouds.3 mph33%29.68 "HgN/A
3:00 PM86 °FPassing clouds.8 mph33%29.68 "HgN/A
2:30 PM86 °FPassing clouds.6 mph38%29.68 "HgN/A
2:00 PM86 °FSunny.3 mph35%29.71 "Hg10 mi
1:30 PM86 °FPassing clouds.8 mph38%29.71 "HgN/A
1:00 PM82 °FScattered clouds.8 mph40%29.71 "HgN/A
12:30 PM81 °FThunderstorms. Scattered clouds.8 mph42%29.74 "HgN/A
12:00 PM81 °FScattered clouds.15 mph39%29.77 "HgN/A
Weather by CustomWeather, © 2015

See weather overviewHow to use our weather pages